FW9291 Weather Reports


time (UTC)temp
F
wind
direction
speed
knots
gust
knots
rain 1hr
in
rain 24hr
in
rain mn
in
humidity
%
barometer
mb
20260504020440 59 81 2.6 5.2 0.00 0.00 0.00 74 1033.0
20260504015937 59 53 2.6 6.1 0.00 0.00 0.00 74 1032.9
20260504015439 58 32 2.6 6.1 0.00 0.00 0.00 74 1033.0
20260504013936 59 36 2.6 5.2 0.00 0.00 0.00 74 1033.0
20260504013433 59 41 2.6 5.2 0.00 0.00 0.00 73 1033.0
20260504012932 59 17 2.6 7.0 0.00 0.00 0.00 74 1032.9
20260504012433 59 61 2.6 7.0 0.00 0.00 0.00 75 1032.9
20260504011935 58 30 3.5 7.0 0.00 0.00 0.00 75 1033.1
20260504011435 58 46 3.5 7.0 0.00 0.00 0.00 75 1032.9
20260504010430 59 96 2.6 5.2 0.00 0.00 0.00 74 1033.2
20260504005929 59 54 3.5 5.2 0.00 0.00 0.00 73 1033.4
20260504005427 59 46 2.6 4.3 0.00 0.00 0.00 74 1033.4
20260504004928 59 63 2.6 5.2 0.00 0.00 0.00 74 1033.5
20260504004425 58 52 3.5 5.2 0.00 0.00 0.00 75 1033.6
20260504003926 58 65 2.6 5.2 0.00 0.00 0.00 74 1033.7
20260504003424 58 53 2.6 6.1 0.00 0.00 0.00 75 1033.7
20260504002923 59 94 2.6 6.1 0.00 0.00 0.00 73 1033.8
20260504002420 59 94 2.6 4.3 0.00 0.00 0.00 75 1033.9
20260504001924 58 40 2.6 6.1 0.00 0.00 0.00 75 1033.9
20260504001424 58 93 2.6 6.1 0.00 0.00 0.00 76 1033.9
20260504000423 58 80 2.6 5.2 0.00 0.00 0.00 75 1034.0
20260503235922 58 56 2.6 5.2 0.00 0.00 0.00 76 1034.1
20260503235421 57 88 2.6 5.2 0.00 0.00 0.00 77 1034.2
20260503234920 57 53 3.5 5.2 0.00 0.00 0.00 75 1034.2
20260503234419 57 45 3.5 7.0 0.00 0.00 0.00 76 1034.3
20260503233917 57 51 3.5 7.0 0.00 0.00 0.00 76 1034.4
20260503233419 58 76 4.3 7.0 0.00 0.00 0.00 76 1034.5
20260503232918 58 47 3.5 7.0 0.00 0.00 0.00 75 1034.5
20260503232416 58 76 2.6 6.1 0.00 0.00 0.00 76 1034.5
20260503231417 58 237 0.9 4.3 0.00 0.00 0.00 74 1034.5
20260503230920 57 197 0.9 2.6 0.00 0.00 0.00 77 1034.6
20260503225917 57 209 1.7 3.5 0.00 0.00 0.00 77 1034.6
20260503225418 57 281 1.7 4.3 0.00 0.00 0.00 77 1034.7
20260503224918 56 175 1.7 4.3 0.00 0.00 0.00 77 1034.6
20260503224416 56 189 2.6 4.3 0.00 0.00 0.00 78 1034.8
20260503223917 56 260 1.7 4.3 0.00 0.00 0.00 79 1034.7
20260503222917 55 242 2.6 4.3 0.00 0.00 0.00 79 1034.9
20260503222416 54 254 2.6 6.1 0.00 0.00 0.00 80 1034.8
20260503221917 54 246 2.6 6.1 0.00 0.00 0.00 80 1035.0
20260503220918 53 294 2.6 6.1 0.00 0.00 0.00 81 1035.1
20260503220422 53 240 2.6 6.1 0.00 0.00 0.00 82 1035.1
20260503215922 53 246 2.6 6.1 0.00 0.00 0.00 82 1035.0
20260503215422 52 203 2.6 4.3 0.00 0.00 0.00 84 1035.0
20260503214417 51 209 2.6 7.0 0.00 0.00 0.00 86 1035.1
20260503213918 51 221 2.6 6.1 0.00 0.00 0.00 87 1035.2
20260503212915 50 198 2.6 7.0 0.00 0.00 0.00 90 1035.2
20260503212414 49 200 2.6 4.3 0.00 0.00 0.00 91 1035.2
20260503211915 49 247 2.6 4.3 0.00 0.00 0.00 92 1035.2
20260503211417 49 223 2.6 5.2 0.00 0.00 0.00 93 1035.0
20260503210914 48 244 3.5 5.2 0.00 0.00 0.00 93 1035.0
20260503210415 48 215 2.6 5.2 0.00 0.00 0.00 93 1035.0
20260503205915 48 215 2.6 6.1 0.00 0.00 0.00 94 1035.0
20260503205414 47 222 2.6 6.1 0.00 0.00 0.00 94 1035.0
20260503204911 47 243 2.6 4.3 0.00 0.00 0.00 94 1035.0
20260503204407 47 229 1.7 3.5 0.00 0.00 0.00 94 1035.0
20260503203906 47 240 1.7 3.5 0.00 0.00 0.00 94 1035.1
20260503202907 46 249 1.7 3.5 0.00 0.00 0.00 94 1034.9
20260503202407 47 240 1.7 3.5 0.00 0.00 0.00 94 1034.9
20260503201906 47 240 1.7 3.5 0.00 0.00 0.00 94 1034.9
20260503201410 47 228 1.7 5.2 0.00 0.00 0.00 94 1034.8
20260503200906 47 238 2.6 5.2 0.00 0.00 0.00 94 1034.7
20260503200407 46 241 2.6 5.2 0.00 0.00 0.00 94 1034.7
20260503195907 46 232 2.6 4.3 0.00 0.00 0.00 94 1034.7
20260503195408 46 229 1.7 3.5 0.00 0.00 0.00 94 1034.7
20260503194407 46 240 1.7 4.3 0.00 0.00 0.00 94 1034.6
20260503193906 46 246 1.7 4.3 0.00 0.00 0.00 94 1034.5
20260503193410 45 240 1.7 3.5 0.00 0.00 0.00 94 1034.5
20260503192406 45 242 1.7 3.5 0.00 0.00 0.00 94 1034.5
20260503191909 44 238 1.7 3.5 0.00 0.00 0.00 94 1034.5
20260503191409 44 244 1.7 3.5 0.00 0.00 0.00 94 1034.4
20260503190908 44 251 0.9 3.5 0.00 0.00 0.00 94 1034.4
20260503190405 43 235 0.9 2.6 0.00 0.00 0.00 94 1034.4
20260503185905 43 235 0.9 3.5 0.00 0.00 0.00 94 1034.4
20260503185406 42 235 0.0 3.5 0.00 0.00 0.00 94 1034.3
20260503184909 41 217 0.0 0.9 0.00 0.00 0.00 93 1034.4
20260503184405 41 217 0.0 0.9 0.00 0.00 0.00 93 1034.2
20260503183903 40 216 0.0 0.9 0.00 0.00 0.00 92 1034.3
20260503183404 40 216 0.0 0.9 0.00 0.00 0.00 92 1034.3
20260503182903 40 216 0.0 0.9 0.00 0.00 0.00 92 1034.3
20260503182404 41 217 0.0 0.0 0.00 0.00 0.00 92 1034.2
20260503181904 41 216 0.0 0.9 0.00 0.00 0.00 92 1034.1
20260503181404 41 217 0.0 0.9 0.00 0.00 0.00 91 1033.8
20260503180904 42 217 0.0 0.9 0.00 0.00 0.00 92 1033.7
20260503180409 42 217 0.9 1.7 0.00 0.00 0.00 92 1033.7
20260503175908 42 217 0.9 1.7 0.00 0.00 0.00 92 1033.7
20260503175407 42 217 0.9 1.7 0.00 0.00 0.00 92 1033.7
20260503174905 42 216 0.9 1.7 0.00 0.00 0.00 92 1033.7
20260503174359 42 216 0.9 1.7 0.00 0.00 0.00 92 1033.7
20260503173901 42 217 0.9 2.6 0.00 0.00 0.00 92 1033.7
20260503172901 43 216 0.9 3.5 0.00 0.00 0.00 92 1033.7
20260503172400 43 223 1.7 2.6 0.00 0.00 0.00 92 1033.6
20260503171855 43 224 1.7 3.5 0.00 0.00 0.00 93 1033.7
20260503171352 43 211 0.9 3.5 0.00 0.00 0.00 93 1033.7
20260503170850 43 196 1.7 3.5 0.00 0.00 0.00 93 1033.7
20260503150832 42 65 0.9 2.6 0.00 0.00 0.00 92 1033.9
20260503131321 43 65 0.0 0.0 0.00 0.00 0.00 91 1034.3
20260503130817 43 65 0.0 0.0 0.00 0.00 0.00 91 1034.3
20260503130321 44 64 0.0 0.0 0.00 0.00 0.00 91 1034.3
20260503110805 46 65 0.0 0.0 0.00 0.00 0.00 91 1034.6
20260503110319 46 65 0.0 0.0 0.00 0.00 0.00 90 1034.6
20260503100257 47 65 0.0 0.9 0.00 0.00 0.00 90 1034.8
20260503081234 49 65 0.0 0.0 0.00 0.00 0.00 87 1034.1
20260503080735 50 65 0.0 0.0 0.00 0.00 0.00 87 1034.0
20260503072725 52 65 0.0 0.0 0.00 0.00 0.00 86 1033.9
20260503071712 52 64 0.0 0.0 0.00 0.00 0.00 86 1033.8
20260503071213 52 65 0.0 0.0 0.00 0.00 0.00 86 1033.8
20260503070710 52 65 0.0 0.0 0.00 0.00 0.00 86 1033.8
20260503070209 52 65 0.0 0.0 0.00 0.00 0.00 85 1033.7
20260503054707 56 65 0.0 0.0 0.00 0.00 0.00 79 1033.5
20260503054204 56 65 0.0 0.0 0.00 0.00 0.00 79 1033.5
20260503053205 57 65 0.0 0.0 0.00 0.00 0.00 78 1033.4
20260503052707 57 65 0.0 0.0 0.00 0.00 0.00 78 1033.4
20260503051706 58 65 0.9 2.6 0.00 0.00 0.00 77 1033.4
20260503051204 58 65 0.9 2.6 0.00 0.00 0.00 77 1033.4
20260503050710 58 88 0.9 2.6 0.00 0.00 0.00 76 1033.3
20260503050203 58 88 0.9 3.5 0.00 0.00 0.00 76 1033.4
20260503045707 58 86 1.7 3.5 0.00 0.00 0.00 76 1033.4
20260503044705 58 79 1.7 3.5 0.00 0.00 0.00 75 1033.4
20260503044206 59 54 1.7 5.2 0.00 0.00 0.00 75 1033.4
20260503043703 59 88 1.7 5.2 0.00 0.00 0.00 74 1033.3
20260503043203 59 116 1.7 5.2 0.00 0.00 0.00 74 1033.2
20260503042705 59 84 2.6 5.2 0.00 0.00 0.00 74 1033.2
20260503042203 59 61 2.6 5.2 0.00 0.00 0.00 73 1033.3
20260503041703 59 88 2.6 5.2 0.00 0.00 0.00 73 1033.2
20260503041205 59 118 2.6 5.2 0.00 0.00 0.00 74 1033.3
20260503040705 59 73 2.6 6.1 0.00 0.00 0.00 73 1033.2
20260503040206 59 52 2.6 6.1 0.00 0.00 0.00 72 1033.1
20260503035204 60 32 2.6 5.2 0.00 0.00 0.00 72 1033.1
20260503034202 60 86 2.6 5.2 0.00 0.00 0.00 71 1033.0
20260503033701 60 108 2.6 5.2 0.00 0.00 0.00 70 1033.1
20260503033203 60 77 3.5 7.0 0.00 0.00 0.00 72 1033.0
20260503032703 60 100 3.5 7.8 0.00 0.00 0.00 71 1033.0
20260503032157 60 50 3.5 7.8 0.00 0.00 0.00 71 1033.0
20260503031157 60 76 4.3 7.8 0.00 0.00 0.00 69 1033.0
20260503030651 60 44 4.3 7.8 0.00 0.00 0.00 69 1033.0
20260503025643 60 65 3.5 7.8 0.00 0.00 0.00 70 1033.1
20260503025144 60 62 3.5 7.8 0.00 0.00 0.00 72 1033.2
20260503024642 60 87 3.5 7.8 0.00 0.00 0.00 70 1033.3
20260503023142 60 78 4.3 7.8 0.00 0.00 0.00 71 1033.3
20260503022642 60 88 4.3 7.0 0.00 0.00 0.00 70 1033.3
20260503022141 60 87 4.3 7.8 0.00 0.00 0.00 71 1033.4
20260503021141 60 109 4.3 7.8 0.00 0.00 0.00 71 1033.4